Погода в Беляевке

Украина / Одесская область     46°28′21″N   30°13′31″E
темп.,
°C
ветер,
м/с
пор.,
м/с
влажн.,
%
обл.,
%
осадки,
мм/ч
давл.,
гПа
погр.,
м
5 марта, пт
пт523:00+7ююз487672 0.0 1013164
02:00+7юз347486 0.0 101266
05:00+6с227174 0.0 101222
08:00+6св487444 0.0 1011266
11:00+11в4557100 0.0 1012480
14:00+13ю3351100 0.0 1011850
17:00+11ююв456093 0.0 1010240
20:00+8ю477168 0.0 1012139
6 марта, сб
сб623:00+8сз8137999 0.0 1013472
02:00+6ссз81078100 0.0 1016878
05:00+2с8127799 0.0 1018761
08:00+1с7116999 0.0 1022809
11:00+4с7944100 0.0 10241301
14:00+5ссз7938100 0.0 10251713
17:00+4с67350 0.0 10261703
20:00+1ссв22450 0.0 102825
7 марта, вс
вс723:000зюз23490 0.0 103028
02:000сз476512 0.0 1030173
05:00−1зсз37660 0.0 1029204
08:000зсз36490 0.0 1029501
11:00+5з57360 0.0 10271381
14:00+6зюз68380 0.0 10241498
17:00+6зюз58400 0.0 10211246
20:00+3юз48570 0.0 1020206
8 марта, пн
пн823:00+2юз510630 0.0 1020265
02:00+1юз487223 0.0 1018174
05:000зюз357940 0.0 101789
08:00+2з126720 0.0 101896
11:00+7ссз12400 0.0 1017844
14:00+8юз223531 0.0 10161362
17:00+6ю444793 0.0 1014310
20:00+4ю346477 0.0 101582
9 марта, вт
вт923:00+3ююз22710 0.0 101522
02:00+2с12700 0.0 101522
05:00+1с49710 0.0 1016196
08:00+1с69770 0.0 1018508
11:00+4с67467 0.0 10201150
14:00+5с67374 0.0 10201453
17:00+4с56390 0.0 10201590
20:00+1ссв59569 0.0 1022539